JST14 RJBB-YSSY

Flight info

Callsign JST14
Flight time N/A
Altitude 35000
Route TOMOH DOPDA KEC Y47 BUBDO A597 TAXON 25N140E 21N142E 1500N14315E 1000N14415E 0500N14515E DCT PIKOK B586 PY B462 APISO DCT TENCH DCT OVRON B462 MK H652 BOREE
Aircraft B788/H-SDE1E2E3FGHIJ2J3J4J5M1RWXY/LB1D1

Departure

Time N/A
Airport Kansai International Airport (RJBB)

Arrival

Time 2026-04-24 23:04
Airport Sydney Kingsford Smith International Airport (YSSY)
Time Latitude Longitude Altitude Speed Heading
2026-04-24 20:30 -7.94671 146.94982 35025 ft 469 kts 169°
2026-04-24 20:31 -8.01091 146.96108 35025 ft 467 kts 169°
2026-04-24 20:31 -8.07485 146.97228 35022 ft 467 kts 169°
2026-04-24 20:32 -8.13905 146.98355 35025 ft 473 kts 169°
2026-04-24 20:32 -8.20490 146.99511 35026 ft 487 kts 169°
2026-04-24 20:33 -8.27240 147.00696 35010 ft 497 kts 169°
2026-04-24 20:33 -8.34055 147.01893 35011 ft 496 kts 170°
2026-04-24 20:34 -8.40850 147.03086 34994 ft 496 kts 170°
2026-04-24 20:34 -8.47654 147.04283 34992 ft 496 kts 170°
2026-04-24 20:35 -8.54455 147.05478 34974 ft 497 kts 170°
2026-04-24 20:35 -8.61272 147.06678 34983 ft 496 kts 171°
2026-04-24 20:36 -8.68037 147.07867 34961 ft 492 kts 171°
2026-04-24 20:36 -8.74740 147.09047 34961 ft 492 kts 171°
2026-04-24 20:37 -8.81534 147.10244 34942 ft 492 kts 171°
2026-04-24 20:37 -8.88241 147.11425 34937 ft 493 kts 171°
2026-04-24 20:38 -8.94988 147.12614 34925 ft 492 kts 171°
2026-04-24 20:38 -9.01720 147.13800 34924 ft 491 kts 171°
2026-04-24 20:39 -9.08447 147.14987 34909 ft 490 kts 171°
2026-04-24 20:39 -9.15167 147.16172 34906 ft 490 kts 171°
2026-04-24 20:40 -9.21885 147.17357 34909 ft 490 kts 171°
2026-04-24 20:40 -9.28598 147.18542 34911 ft 490 kts 171°
2026-04-24 20:41 -9.35319 147.19730 34908 ft 490 kts 171°
2026-04-24 20:41 -9.42037 147.20917 34906 ft 490 kts 171°
2026-04-24 20:42 -9.47635 147.21822 34913 ft 489 kts 173°
2026-04-24 20:42 -9.54377 147.22892 34914 ft 492 kts 172°
2026-04-24 20:43 -9.61124 147.23905 34906 ft 489 kts 173°
2026-04-24 20:43 -9.67855 147.24937 34903 ft 489 kts 173°
2026-04-24 20:44 -9.74583 147.25965 34908 ft 489 kts 173°
2026-04-24 20:44 -9.81311 147.26991 34908 ft 489 kts 173°
2026-04-24 20:45 -9.88041 147.28024 34912 ft 489 kts 173°
2026-04-24 20:45 -9.94757 147.29048 34910 ft 488 kts 173°
2026-04-24 20:46 -10.01455 147.30073 34910 ft 488 kts 173°
2026-04-24 20:46 -10.08162 147.31100 34913 ft 487 kts 173°
2026-04-24 20:47 -10.14865 147.32127 34913 ft 487 kts 173°
2026-04-24 20:47 -10.21571 147.33154 34918 ft 488 kts 174°
2026-04-24 20:48 -10.28244 147.34177 34918 ft 488 kts 174°
2026-04-24 20:48 -10.34957 147.35206 34917 ft 488 kts 174°
2026-04-24 20:49 -10.41676 147.36237 34917 ft 488 kts 174°
2026-04-24 20:49 -10.48391 147.37267 34923 ft 488 kts 174°
2026-04-24 20:50 -10.55118 147.38301 34920 ft 489 kts 174°
2026-04-24 20:50 -10.61840 147.39332 34925 ft 489 kts 174°
2026-04-24 20:51 -10.68553 147.40365 34925 ft 488 kts 174°
2026-04-24 20:51 -10.75279 147.41398 34930 ft 488 kts 174°
2026-04-24 20:52 -10.82002 147.42433 34935 ft 488 kts 174°
2026-04-24 20:52 -10.88715 147.43466 34926 ft 487 kts 175°
2026-04-24 20:53 -10.95399 147.44495 34923 ft 485 kts 175°
2026-04-24 20:53 -11.02076 147.45523 34925 ft 486 kts 175°
2026-04-24 20:54 -11.08770 147.46554 34929 ft 487 kts 175°
2026-04-24 20:54 -11.15473 147.47588 34937 ft 487 kts 175°
2026-04-24 20:55 -11.22176 147.48621 34940 ft 487 kts 175°
2026-04-24 20:55 -11.28887 147.49657 34940 ft 487 kts 175°
2026-04-24 20:56 -11.35589 147.50692 34943 ft 487 kts 175°
2026-04-24 20:56 -11.42285 147.51726 34943 ft 487 kts 175°
2026-04-24 20:57 -11.48986 147.52761 34943 ft 487 kts 175°
2026-04-24 20:57 -11.55632 147.53789 34942 ft 486 kts 175°
2026-04-24 20:58 -11.62304 147.54821 34938 ft 484 kts 175°
2026-04-24 20:58 -11.68974 147.55853 34939 ft 485 kts 175°
2026-04-24 20:59 -11.75650 147.56887 34940 ft 486 kts 175°
2026-04-24 20:59 -11.82326 147.57921 34945 ft 484 kts 175°
2026-04-24 21:00 -11.88976 147.58951 34944 ft 484 kts 175°
2026-04-24 21:00 -11.95648 147.59986 34946 ft 485 kts 175°
2026-04-24 21:01 -12.02315 147.61020 34946 ft 484 kts 175°
2026-04-24 21:01 -12.08970 147.62054 34945 ft 483 kts 175°
2026-04-24 21:02 -12.15598 147.63084 34945 ft 481 kts 175°
2026-04-24 21:02 -12.22228 147.64114 34949 ft 483 kts 175°
2026-04-24 21:03 -12.28832 147.65142 34954 ft 484 kts 175°
2026-04-24 21:03 -12.35496 147.66179 34958 ft 485 kts 175°
2026-04-24 21:04 -12.42147 147.67215 34952 ft 483 kts 175°
2026-04-24 21:04 -12.48778 147.68248 34955 ft 481 kts 175°
2026-04-24 21:05 -12.55402 147.69280 34954 ft 482 kts 175°
2026-04-24 21:05 -12.62035 147.70315 34954 ft 483 kts 175°
2026-04-24 21:06 -12.68691 147.71353 34956 ft 484 kts 175°
2026-04-24 21:06 -12.75339 147.72392 34954 ft 482 kts 175°
2026-04-24 21:07 -12.81959 147.73426 34953 ft 481 kts 175°
2026-04-24 21:07 -12.88572 147.74459 34957 ft 480 kts 175°
2026-04-24 21:08 -12.95186 147.75493 34957 ft 481 kts 175°
2026-04-24 21:08 -13.01804 147.76529 34958 ft 481 kts 175°
2026-04-24 21:09 -13.08376 147.77558 34967 ft 481 kts 175°
2026-04-24 21:09 -13.15000 147.78595 34968 ft 481 kts 175°
2026-04-24 21:10 -13.21629 147.79634 34972 ft 482 kts 175°
2026-04-24 21:10 -13.28254 147.80673 34971 ft 482 kts 175°
2026-04-24 21:11 -13.34876 147.81712 34970 ft 482 kts 175°
2026-04-24 21:11 -13.41511 147.82753 34971 ft 482 kts 175°
2026-04-24 21:12 -13.47029 147.83620 34972 ft 482 kts 175°
2026-04-24 21:12 -13.54793 147.84840 34975 ft 483 kts 175°
2026-04-24 21:13 -13.61426 147.85883 34978 ft 483 kts 175°
2026-04-24 21:13 -13.68071 147.86929 34978 ft 482 kts 176°
2026-04-24 21:14 -13.74683 147.87969 34978 ft 480 kts 176°
2026-04-24 21:14 -13.81292 147.89010 34975 ft 480 kts 176°
2026-04-24 21:15 -13.87895 147.90051 34981 ft 480 kts 176°
2026-04-24 21:15 -13.94485 147.91090 34978 ft 479 kts 176°
2026-04-24 21:16 -14.01082 147.92131 34989 ft 479 kts 176°
2026-04-24 21:16 -14.07616 147.93162 34993 ft 479 kts 176°
2026-04-24 21:17 -14.14218 147.94204 34996 ft 481 kts 176°
2026-04-24 21:17 -14.19771 147.95083 34993 ft 482 kts 176°
2026-04-24 21:18 -14.27458 147.96298 35009 ft 480 kts 176°
2026-04-24 21:18 -14.34051 147.97342 34988 ft 478 kts 176°
2026-04-24 21:19 -14.40624 147.98382 34986 ft 478 kts 176°
2026-04-24 21:19 -14.47207 147.99425 34991 ft 478 kts 176°
2026-04-24 21:20 -14.57069 148.00989 34991 ft 478 kts 176°
2026-04-24 21:21 -14.63643 148.02033 35010 ft 476 kts 176°
2026-04-24 21:21 -14.70185 148.03070 35011 ft 476 kts 176°
2026-04-24 21:22 -14.76739 148.04112 35008 ft 477 kts 176°
2026-04-24 21:22 -14.83305 148.05155 35013 ft 477 kts 176°
2026-04-24 21:23 -14.89866 148.06199 35021 ft 477 kts 177°
2026-04-24 21:23 -14.96416 148.07243 35015 ft 475 kts 177°
2026-04-24 21:24 -15.02956 148.08284 35014 ft 475 kts 177°
2026-04-24 21:24 -15.09493 148.09327 35019 ft 475 kts 177°
2026-04-24 21:25 -15.16032 148.10371 35015 ft 475 kts 177°
2026-04-24 21:25 -15.22568 148.11415 35016 ft 475 kts 177°
2026-04-24 21:26 -15.29056 148.12451 35018 ft 474 kts 177°
2026-04-24 21:26 -15.35609 148.13499 35023 ft 474 kts 177°
2026-04-24 21:27 -15.42085 148.14535 35020 ft 475 kts 177°
2026-04-24 21:27 -15.48623 148.15582 35023 ft 476 kts 177°
2026-04-24 21:28 -15.55172 148.16631 35030 ft 477 kts 177°
2026-04-24 21:28 -15.61725 148.17681 35030 ft 476 kts 177°
2026-04-24 21:29 -15.68259 148.18730 35029 ft 474 kts 177°
2026-04-24 21:29 -15.74777 148.19776 35023 ft 473 kts 177°
2026-04-24 21:30 -15.81288 148.20821 35036 ft 475 kts 177°
2026-04-24 21:30 -15.87814 148.21871 35035 ft 473 kts 177°
2026-04-24 21:31 -15.93227 148.22740 35036 ft 473 kts 178°
2026-04-24 21:31 -15.99731 148.23787 35039 ft 473 kts 177°
2026-04-24 21:32 -16.06231 148.24833 35035 ft 473 kts 177°
2026-04-24 21:32 -16.12776 148.25888 35057 ft 473 kts 177°
2026-04-24 21:33 -16.19234 148.26929 35043 ft 472 kts 178°
2026-04-24 21:33 -16.25713 148.27974 35037 ft 471 kts 178°
2026-04-24 21:34 -16.32210 148.29023 35039 ft 473 kts 178°
2026-04-24 21:34 -16.38718 148.30074 35049 ft 474 kts 178°
2026-04-24 21:35 -16.45237 148.31129 35037 ft 474 kts 178°
2026-04-24 21:35 -16.51734 148.32180 35042 ft 471 kts 178°
2026-04-24 21:36 -16.54669 148.32655 35040 ft 471 kts 178°
2026-04-24 21:39 -16.64252 148.34206 35043 ft 472 kts 178°
2026-04-24 21:39 -16.89981 148.38379 35046 ft 471 kts 178°
2026-04-24 21:40 -17.15091 148.42467 35054 ft 465 kts 179°
2026-04-24 21:40 -17.25891 148.44231 35053 ft 466 kts 179°
2026-04-24 21:41 -17.36112 148.45895 35086 ft 465 kts 179°
2026-04-24 21:41 -17.64100 148.50468 35077 ft 459 kts 179°
2026-04-24 21:42 -17.75563 148.52349 35076 ft 455 kts 180°
2026-04-24 21:42 -17.86610 148.54166 35086 ft 456 kts 180°
2026-04-24 21:43 -18.02440 148.56769 35082 ft 451 kts 180°
2026-04-24 21:43 -18.27125 148.60834 35120 ft 451 kts 180°
2026-04-24 21:44 -18.51712 148.64896 35103 ft 447 kts 180°
2026-04-24 21:44 -18.76422 148.68991 35103 ft 446 kts 180°
2026-04-24 21:45 -19.00646 148.73015 35113 ft 442 kts 181°
2026-04-24 21:45 -19.24893 148.77063 35117 ft 435 kts 181°
2026-04-24 21:46 -19.48871 148.81069 35120 ft 438 kts 181°
2026-04-24 21:46 -19.72858 148.85091 35126 ft 436 kts 181°
2026-04-24 21:47 -19.99560 148.89583 35134 ft 437 kts 181°
2026-04-24 21:47 -20.19784 148.93006 35134 ft 441 kts 180°
2026-04-24 21:48 -20.31894 148.95045 35130 ft 441 kts 180°
2026-04-24 21:48 -20.44002 148.98074 35157 ft 453 kts 174°
2026-04-24 21:49 -20.56166 149.01487 35160 ft 451 kts 174°
2026-04-24 21:49 -20.68318 149.04898 35159 ft 455 kts 173°
2026-04-24 21:50 -20.80718 149.08393 35166 ft 460 kts 173°
2026-04-24 21:50 -20.93135 149.11893 35171 ft 462 kts 173°
2026-04-24 21:51 -21.05538 149.15395 35173 ft 461 kts 172°
2026-04-24 21:51 -21.17926 149.18813 35188 ft 453 kts 179°
2026-04-24 21:52 -21.33172 149.21075 35784 ft 453 kts 179°
2026-04-24 21:52 -21.60425 149.25141 38727 ft 431 kts 180°
2026-04-24 21:52 -21.66347 149.25999 39176 ft 430 kts 180°
2026-04-24 21:53 -21.85223 149.28826 39924 ft 430 kts 180°
2026-04-24 21:53 -22.06675 149.32044 40986 ft 435 kts 180°
2026-04-24 21:53 -22.12121 149.32841 41213 ft 438 kts 180°
2026-04-24 21:54 -22.24292 149.34677 41206 ft 441 kts 180°
2026-04-24 21:54 -22.36410 149.36500 41206 ft 438 kts 180°
2026-04-24 21:54 -22.50813 149.38136 41220 ft 423 kts 188°
2026-04-24 21:55 -22.60650 149.38181 41227 ft 438 kts 181°
2026-04-24 21:55 -22.81511 149.39352 41224 ft 441 kts 185°
2026-04-24 21:56 -22.87661 149.39638 41227 ft 443 kts 184°
2026-04-24 21:56 -23.01829 149.40342 41252 ft 445 kts 184°
2026-04-24 21:57 -23.26568 149.41563 41239 ft 445 kts 184°
2026-04-24 21:57 -23.51320 149.42789 41236 ft 445 kts 184°
2026-04-24 21:58 -23.75907 149.44011 41257 ft 445 kts 184°
2026-04-24 21:58 -24.00647 149.45246 41259 ft 445 kts 183°
2026-04-24 21:59 -24.25371 149.46485 41265 ft 443 kts 183°
2026-04-24 21:59 -24.46588 149.47552 41266 ft 443 kts 183°
2026-04-24 22:00 -24.56907 149.48072 41267 ft 443 kts 183°
2026-04-24 22:00 -24.63069 149.48383 41267 ft 443 kts 183°
2026-04-24 22:01 -24.69232 149.48694 41273 ft 444 kts 183°
2026-04-24 22:01 -24.75405 149.49006 41275 ft 444 kts 183°
2026-04-24 22:02 -24.81588 149.49319 41278 ft 445 kts 183°
2026-04-24 22:02 -24.87772 149.49633 41281 ft 446 kts 183°
2026-04-24 22:03 -24.93967 149.49947 41288 ft 445 kts 183°
2026-04-24 22:03 -25.00148 149.50261 41285 ft 443 kts 182°
2026-04-24 22:04 -25.06296 149.50573 41286 ft 442 kts 182°
2026-04-24 22:04 -25.12430 149.50885 41290 ft 442 kts 182°
2026-04-24 22:05 -25.18571 149.51198 41291 ft 442 kts 182°
2026-04-24 22:05 -25.24717 149.51511 41299 ft 442 kts 182°
2026-04-24 22:06 -25.30862 149.51825 41300 ft 443 kts 182°
2026-04-24 22:06 -25.37025 149.52140 41310 ft 444 kts 182°
2026-04-24 22:07 -25.43200 149.52455 41314 ft 444 kts 182°
2026-04-24 22:07 -25.49375 149.52772 41317 ft 445 kts 182°
2026-04-24 22:08 -25.55559 149.53089 41308 ft 443 kts 182°
2026-04-24 22:08 -25.61700 149.53404 41308 ft 441 kts 182°
2026-04-24 22:09 -25.67794 149.53716 41307 ft 441 kts 182°
2026-04-24 22:09 -25.73930 149.54032 41305 ft 441 kts 182°
2026-04-24 22:10 -25.80068 149.54347 41322 ft 441 kts 182°
2026-04-24 22:10 -25.86205 149.54664 41321 ft 442 kts 182°
2026-04-24 22:11 -25.92340 149.54980 41327 ft 442 kts 182°
2026-04-24 22:11 -25.98487 149.55297 41330 ft 442 kts 182°
2026-04-24 22:12 -26.04630 149.55614 41336 ft 442 kts 182°
2026-04-24 22:12 -26.10781 149.55933 41333 ft 443 kts 181°
2026-04-24 22:13 -26.16950 149.56252 41333 ft 444 kts 181°
2026-04-24 22:13 -26.23090 149.56570 41335 ft 445 kts 181°
2026-04-24 22:14 -26.29277 149.56891 41328 ft 445 kts 181°
2026-04-24 22:14 -26.35451 149.57212 41334 ft 444 kts 181°
2026-04-24 22:15 -26.41613 149.57533 41341 ft 443 kts 181°
2026-04-24 22:15 -26.47812 149.57855 41339 ft 443 kts 181°
2026-04-24 22:16 -26.53920 149.58174 41337 ft 442 kts 181°
2026-04-24 22:16 -26.60065 149.58494 41342 ft 442 kts 181°
2026-04-24 22:17 -26.66221 149.58816 41341 ft 444 kts 181°
2026-04-24 22:17 -26.71390 149.59085 41335 ft 445 kts 181°
2026-04-24 22:18 -26.77535 149.59407 41340 ft 445 kts 181°
2026-04-24 22:18 -26.83753 149.59733 41339 ft 444 kts 181°
2026-04-24 22:19 -26.89923 149.60057 41344 ft 444 kts 181°
2026-04-24 22:19 -26.96098 149.60380 41354 ft 445 kts 181°
2026-04-24 22:20 -27.02237 149.60704 41349 ft 445 kts 181°
2026-04-24 22:20 -27.08415 149.61029 41350 ft 444 kts 181°
2026-04-24 22:21 -27.14591 149.61354 41352 ft 444 kts 181°
2026-04-24 22:21 -27.20770 149.61680 41355 ft 444 kts 181°
2026-04-24 22:22 -27.26940 149.62006 41356 ft 444 kts 181°
2026-04-24 22:22 -27.33109 149.62332 41356 ft 444 kts 181°
2026-04-24 22:23 -27.39275 149.62658 41360 ft 444 kts 180°
2026-04-24 22:23 -27.45462 149.62986 41359 ft 446 kts 180°
2026-04-24 22:24 -27.51666 149.63315 41361 ft 447 kts 180°
2026-04-24 22:24 -27.57879 149.63645 41367 ft 446 kts 180°
2026-04-24 22:25 -27.64071 149.63974 41375 ft 446 kts 180°
2026-04-24 22:25 -27.70255 149.64303 41367 ft 443 kts 180°
2026-04-24 22:26 -27.76407 149.64630 41368 ft 443 kts 180°
2026-04-24 22:26 -27.82569 149.64959 41370 ft 444 kts 180°
2026-04-24 22:27 -27.88909 149.65298 41371 ft 445 kts 180°
2026-04-24 22:27 -28.12040 149.66536 41379 ft 444 kts 180°
2026-04-24 22:27 -28.24272 149.68561 41381 ft 450 kts 168°
2026-04-24 22:28 -28.36390 149.72091 41388 ft 449 kts 169°
2026-04-24 22:28 -28.60572 149.79153 41389 ft 449 kts 169°
2026-04-24 22:29 -28.99969 149.90722 41394 ft 449 kts 168°
2026-04-24 22:29 -29.21719 149.97150 41390 ft 448 kts 168°
2026-04-24 22:30 -29.45781 150.04292 41395 ft 446 kts 168°
2026-04-24 22:30 -29.69765 150.11445 41401 ft 446 kts 168°
2026-04-24 22:31 -29.93838 150.18661 41416 ft 449 kts 167°
2026-04-24 22:31 -30.18025 150.25949 41423 ft 449 kts 167°
2026-04-24 22:32 -30.42180 150.33265 41442 ft 447 kts 167°
2026-04-24 22:32 -30.66239 150.40588 41451 ft 448 kts 167°
2026-04-24 22:33 -30.99115 150.50662 41451 ft 448 kts 167°
2026-04-24 22:33 -31.23242 150.58092 41453 ft 448 kts 166°
2026-04-24 22:34 -31.43692 150.64423 41458 ft 448 kts 166°
2026-04-24 22:34 -31.51523 150.66856 41458 ft 447 kts 166°
2026-04-24 22:35 -31.57524 150.68723 41465 ft 446 kts 166°
2026-04-24 22:35 -31.63516 150.70590 41465 ft 445 kts 166°
2026-04-24 22:36 -31.69507 150.72459 41467 ft 446 kts 166°
2026-04-24 22:36 -31.75519 150.74337 41469 ft 447 kts 166°
2026-04-24 22:37 -31.81498 150.76205 41487 ft 449 kts 166°
2026-04-24 22:37 -31.87538 150.78098 41487 ft 449 kts 166°
2026-04-24 22:38 -31.93576 150.79991 41490 ft 449 kts 166°
2026-04-24 22:38 -31.99613 150.81888 41487 ft 449 kts 166°
2026-04-24 22:39 -32.05690 150.83481 41491 ft 447 kts 172°
2026-04-24 22:39 -32.11857 150.84571 41491 ft 448 kts 172°
2026-04-24 22:40 -32.18017 150.85645 41481 ft 448 kts 172°
2026-04-24 22:40 -32.24178 150.86728 41482 ft 448 kts 172°
2026-04-24 22:41 -32.30334 150.87809 41066 ft 444 kts 172°
2026-04-24 22:41 -32.33387 150.88345 40447 ft 442 kts 172°
2026-04-24 22:41 -32.36414 150.88878 39935 ft 438 kts 172°
2026-04-24 22:42 -32.39407 150.89405 39417 ft 433 kts 172°
2026-04-24 22:42 -32.42378 150.89928 38836 ft 430 kts 171°
2026-04-24 22:42 -32.45321 150.90447 38205 ft 426 kts 171°
2026-04-24 22:42 -32.48242 150.90962 37596 ft 422 kts 171°
2026-04-24 22:43 -32.51134 150.91473 37002 ft 419 kts 171°
2026-04-24 22:43 -32.54006 150.91980 36418 ft 415 kts 171°
2026-04-24 22:43 -32.56846 150.92482 35854 ft 412 kts 170°
2026-04-24 22:43 -32.59671 150.92981 35290 ft 409 kts 170°
2026-04-24 22:44 -32.62473 150.93477 34759 ft 406 kts 170°
2026-04-24 22:44 -32.65253 150.93970 34175 ft 402 kts 170°
2026-04-24 22:44 -32.68009 150.94458 33555 ft 399 kts 169°
2026-04-24 22:44 -32.70745 150.94944 32961 ft 396 kts 169°
2026-04-24 22:45 -32.73465 150.95426 32371 ft 393 kts 169°
2026-04-24 22:45 -32.76158 150.95904 31802 ft 390 kts 169°
2026-04-24 22:45 -32.78828 150.96379 31241 ft 387 kts 169°
2026-04-24 22:45 -32.81483 150.96851 30694 ft 384 kts 169°
2026-04-24 22:46 -32.84113 150.97318 30072 ft 380 kts 169°
2026-04-24 22:46 -32.86686 150.97777 29449 ft 377 kts 169°
2026-04-24 22:46 -32.89269 150.98238 28829 ft 374 kts 169°
2026-04-24 22:46 -32.91866 150.98701 28193 ft 372 kts 169°
2026-04-24 22:47 -32.94385 150.99150 27605 ft 369 kts 169°
2026-04-24 22:47 -32.96918 150.99601 27027 ft 366 kts 169°
2026-04-24 22:47 -32.99431 151.00050 26455 ft 364 kts 169°
2026-04-24 22:47 -33.01927 151.00496 25896 ft 362 kts 169°
2026-04-24 22:48 -33.04408 151.00939 25346 ft 359 kts 169°
2026-04-24 22:48 -33.06868 151.01379 24810 ft 357 kts 169°
2026-04-24 22:48 -33.09316 151.01817 24282 ft 355 kts 169°
2026-04-24 22:48 -33.11754 151.02253 23696 ft 353 kts 170°
2026-04-24 22:49 -33.14175 151.02687 23076 ft 351 kts 170°
2026-04-24 22:49 -33.16580 151.03117 22463 ft 348 kts 170°
2026-04-24 22:49 -33.18967 151.03546 21872 ft 346 kts 170°
2026-04-24 22:49 -33.21343 151.03972 21293 ft 344 kts 170°
2026-04-24 22:50 -33.23700 151.04395 20717 ft 342 kts 170°
2026-04-24 22:50 -33.26040 151.04828 20162 ft 339 kts 169°
2026-04-24 22:50 -33.28361 151.05285 19610 ft 337 kts 169°
2026-04-24 22:50 -33.37279 151.06991 17374 ft 328 kts 169°
2026-04-24 22:51 -33.54714 151.10355 12781 ft 306 kts 169°
2026-04-24 22:51 -33.60550 151.11473 11182 ft 300 kts 170°
2026-04-24 22:51 -33.62465 151.11842 10665 ft 298 kts 170°
2026-04-24 22:51 -33.64505 151.12247 10104 ft 295 kts 170°
2026-04-24 22:52 -33.66482 151.12640 9510 ft 293 kts 170°
2026-04-24 22:52 -33.68531 151.13043 8922 ft 291 kts 170°
2026-04-24 22:52 -33.70523 151.13437 8349 ft 289 kts 170°
2026-04-24 22:52 -33.72374 151.13797 7823 ft 287 kts 170°
2026-04-24 22:53 -33.74448 151.14196 7241 ft 285 kts 169°
2026-04-24 22:53 -33.76396 151.14573 6728 ft 282 kts 169°
2026-04-24 22:53 -33.78304 151.14943 6420 ft 270 kts 169°
2026-04-24 22:53 -33.80130 151.15297 6162 ft 265 kts 170°
2026-04-24 22:54 -33.81953 151.15236 5963 ft 262 kts 195°
2026-04-24 22:54 -33.83706 151.14650 5982 ft 264 kts 191°
2026-04-24 22:54 -33.85486 151.14219 5991 ft 264 kts 190°
2026-04-24 22:54 -33.87275 151.13738 5989 ft 264 kts 192°
2026-04-24 22:55 -33.89064 151.13209 5983 ft 265 kts 193°
2026-04-24 22:55 -33.90846 151.12683 5992 ft 266 kts 192°
2026-04-24 22:55 -33.92649 151.12165 5993 ft 266 kts 192°
2026-04-24 22:55 -33.94444 151.11650 5975 ft 265 kts 192°
2026-04-24 22:56 -33.96259 151.11127 5983 ft 265 kts 192°
2026-04-24 22:56 -33.98053 151.10608 5979 ft 265 kts 192°
2026-04-24 22:56 -34.02878 151.09214 5980 ft 265 kts 192°
2026-04-24 22:56 -34.08590 151.07789 5954 ft 263 kts 174°
2026-04-24 22:57 -34.10372 151.08230 5989 ft 262 kts 164°
2026-04-24 22:57 -34.11752 151.08683 5876 ft 261 kts 164°
2026-04-24 22:57 -34.12624 151.08946 5735 ft 256 kts 166°
2026-04-24 22:57 -34.14875 151.09523 5306 ft 251 kts 167°
2026-04-24 22:58 -34.18284 151.10391 4620 ft 248 kts 165°
2026-04-24 22:58 -34.20393 151.13212 3934 ft 237 kts 95°
2026-04-24 22:58 -34.20357 151.17182 3469 ft 236 kts 86°
2026-04-24 22:58 -34.19740 151.21037 2969 ft 230 kts 75°
2026-04-24 22:59 -34.18268 151.24276 2958 ft 223 kts 30°
2026-04-24 22:59 -34.16302 151.24414 2959 ft 226 kts 336°
2026-04-24 22:59 -34.14055 151.22851 3001 ft 211 kts 336°
2026-04-24 23:00 -34.12741 151.22347 2996 ft 188 kts 347°
2026-04-24 23:00 -34.11475 151.21999 2991 ft 186 kts 348°
2026-04-24 23:00 -34.10204 151.21667 2806 ft 185 kts 348°
2026-04-24 23:00 -34.08987 151.21348 2584 ft 172 kts 348°
2026-04-24 23:01 -34.07844 151.21044 2395 ft 164 kts 348°
2026-04-24 23:01 -34.06739 151.20745 2152 ft 161 kts 347°
2026-04-24 23:01 -34.05661 151.20463 1902 ft 157 kts 347°
2026-04-24 23:01 -34.04592 151.20197 1694 ft 156 kts 347°
2026-04-24 23:02 -34.03524 151.19924 1472 ft 157 kts 346°
2026-04-24 23:02 -34.02816 151.19738 1361 ft 157 kts 346°
2026-04-24 23:02 -34.01388 151.19364 1083 ft 157 kts 347°
2026-04-24 23:02 -34.00325 151.19079 858 ft 156 kts 346°
2026-04-24 23:03 -33.99271 151.18806 663 ft 153 kts 346°
2026-04-24 23:03 -33.98238 151.18538 450 ft 151 kts 347°
2026-04-24 23:03 -33.97563 151.18363 314 ft 149 kts 347°
2026-04-24 23:03 -33.96556 151.18097 110 ft 149 kts 346°
2026-04-24 23:04 -33.95368 151.17790 35 ft 102 kts 348°
2026-04-24 23:04 -33.94802 151.17643 35 ft 66 kts 348°
2026-04-24 23:04 -33.94465 151.17501 35 ft 38 kts 327°
2026-04-24 23:04 -33.94319 151.17345 36 ft 23 kts 318°
2026-04-24 23:05 -33.94227 151.17290 35 ft 22 kts 347°
2026-04-24 23:05 -33.94079 151.17250 35 ft 21 kts 348°
2026-04-24 23:05 -33.93985 151.17209 35 ft 7 kts 307°
2026-04-24 23:05 -33.93983 151.17169 35 ft 3 kts 254°
2026-04-24 23:06 -33.93998 151.17108 34 ft 13 kts 254°
2026-04-24 23:06 -33.94024 151.16997 35 ft 14 kts 253°
2026-04-24 23:06 -33.94054 151.16875 36 ft 16 kts 253°
2026-04-24 23:06 -33.94036 151.16802 36 ft 4 kts 329°
2026-04-24 23:07 -33.94013 151.16799 36 ft 6 kts 352°
2026-04-24 23:07 -33.93953 151.16782 36 ft 12 kts 343°
2026-04-24 23:07 -33.93864 151.16752 36 ft 14 kts 345°
2026-04-24 23:07 -33.93789 151.16736 36 ft 3 kts 13°
2026-04-24 23:08 -33.93784 151.16750 36 ft 3 kts 63°
2026-04-24 23:08 -33.93774 151.16782 36 ft 5 kts 72°
2026-04-24 23:08 -33.93767 151.16812 36 ft 2 kts 73°
2026-04-24 23:08 -33.93766 151.16815 36 ft 0 kts 73°
2026-04-24 23:11 -33.93764 151.16816 175 ft 5 kts 66°